Location: Neuvy Saint Sepulchre
(46.5953°N, 1.8122°E)
Time: 09:24:19
(UTC+02:00)

ISS - Pass Details

Date: 21 March 2024
Orbit: 413 x 419 km, 51.6° (Epoch: 13 April)

Event Time Altitude Azimuth Distance (km) Brightness Sun altitude
Rises 20:33:52 0° 281° (WNW) 2,363 1.9 -15.4°
Reaches altitude 10° 20:36:06 10° 292° (WNW) 1,502 0.4 -15.8°
Maximum altitude 20:39:12 33° 358° (N) 732 -2.4 -16.3°
Enters shadow 20:40:46 22° 47° (NE) 991 -2.1 -16.5°
